Location: Unspecified
(45.4615°N, 74.0512°W)
Time: 19:55:42
(UTC-05:00)

Cosmos 1674 - Visible Passes

Search period start: 18 December 2018 00:00
Search period end: 28 December 2018 00:00
Orbit: 496 x 520 km, 82.5° (Epoch: 17 December)

Date Brightness Start Highest point End Pass type
(mag) Time Alt. Az. Time Alt. Az. Time Alt. Az.
21 Dec 5.8 06:46:25 10° ENE 06:46:59 10° ENE 06:47:33 10° ENE visible
26 Dec 4.5 06:52:36 10° N 06:56:06 32° ENE 06:59:35 10° SE visible
27 Dec 4.9 06:35:25 10° NNE 06:38:41 26° ENE 06:41:55 10° SE visible
